CEB239 RPLL-VVTS

Flight info

Callsign CEB239
Flight time N/A
Altitude 34000
Route BETEL2C BETEL M765 PANDI/K0830F340 N500 PTH PTH5M
Aircraft A320/M-SDE3FGHIRWY/LB1

Departure

Time 2026-05-07 05:18
Airport Ninoy Aquino International Airport (RPLL)

Arrival

Time N/A
Airport Tan Son Nhat International Airport (VVTS)
Time Latitude Longitude Altitude Speed Heading
2026-05-07 04:44 14.52193 121.00995 61 ft 0 kts 44°
2026-05-07 04:58 14.52193 121.00994 69 ft 0 kts 44°
2026-05-07 05:01 14.52180 121.00980 62 ft 4 kts 48°
2026-05-07 05:01 14.52162 121.00959 65 ft 4 kts 55°
2026-05-07 05:01 14.52148 121.00935 65 ft 4 kts 64°
2026-05-07 05:02 14.52139 121.00909 61 ft 4 kts 82°
2026-05-07 05:02 14.52141 121.00885 61 ft 3 kts 128°
2026-05-07 05:02 14.52143 121.00881 61 ft 1 kts 135°
2026-05-07 05:04 14.52132 121.00893 63 ft 4 kts 135°
2026-05-07 05:04 14.52114 121.00911 63 ft 3 kts 134°
2026-05-07 05:05 14.52096 121.00931 67 ft 6 kts 134°
2026-05-07 05:05 14.52059 121.00969 67 ft 9 kts 135°
2026-05-07 05:05 14.52005 121.01025 67 ft 13 kts 134°
2026-05-07 05:05 14.51934 121.01097 64 ft 16 kts 135°
2026-05-07 05:06 14.51853 121.01179 66 ft 17 kts 135°
2026-05-07 05:06 14.51768 121.01268 62 ft 18 kts 135°
2026-05-07 05:06 14.51677 121.01361 59 ft 19 kts 135°
2026-05-07 05:06 14.51584 121.01458 64 ft 20 kts 135°
2026-05-07 05:07 14.51484 121.01559 67 ft 20 kts 135°
2026-05-07 05:07 14.51384 121.01665 64 ft 21 kts 134°
2026-05-07 05:07 14.51280 121.01772 60 ft 21 kts 135°
2026-05-07 05:07 14.51174 121.01879 67 ft 21 kts 135°
2026-05-07 05:08 14.51100 121.01957 69 ft 3 kts 135°
2026-05-07 05:08 14.51079 121.01978 64 ft 8 kts 136°
2026-05-07 05:09 14.51037 121.01978 64 ft 6 kts 236°
2026-05-07 05:09 14.51014 121.01941 65 ft 7 kts 239°
2026-05-07 05:09 14.50987 121.01891 64 ft 11 kts 242°
2026-05-07 05:09 14.50949 121.01820 63 ft 11 kts 241°
2026-05-07 05:10 14.50913 121.01756 64 ft 10 kts 239°
2026-05-07 05:10 14.50883 121.01702 66 ft 8 kts 239°
2026-05-07 05:10 14.50840 121.01626 64 ft 14 kts 240°
2026-05-07 05:10 14.50797 121.01546 64 ft 12 kts 240°
2026-05-07 05:11 14.50749 121.01463 60 ft 17 kts 239°
2026-05-07 05:11 14.50685 121.01347 63 ft 19 kts 239°
2026-05-07 05:11 14.50622 121.01234 65 ft 18 kts 240°
2026-05-07 05:11 14.50562 121.01126 66 ft 17 kts 240°
2026-05-07 05:12 14.50505 121.01024 64 ft 15 kts 240°
2026-05-07 05:12 14.50456 121.00936 68 ft 13 kts 240°
2026-05-07 05:12 14.50396 121.00832 64 ft 22 kts 239°
2026-05-07 05:12 14.50311 121.00676 58 ft 26 kts 240°
2026-05-07 05:13 14.50217 121.00508 62 ft 27 kts 241°
2026-05-07 05:13 14.50126 121.00343 64 ft 25 kts 240°
2026-05-07 05:13 14.50038 121.00187 59 ft 26 kts 239°
2026-05-07 05:13 14.49979 121.00080 64 ft 11 kts 239°
2026-05-07 05:14 14.49953 121.00033 59 ft 4 kts 240°
2026-05-07 05:14 14.49943 121.00015 64 ft 2 kts 240°
2026-05-07 05:14 14.49934 121.00000 65 ft 6 kts 240°
2026-05-07 05:14 14.49907 120.99967 63 ft 5 kts 208°
2026-05-07 05:15 14.49878 120.99966 69 ft 3 kts 163°
2026-05-07 05:15 14.49875 120.99967 67 ft 0 kts 163°
2026-05-07 05:16 14.49836 120.99987 67 ft 12 kts 150°
2026-05-07 05:16 14.49808 121.00048 62 ft 10 kts 65°
2026-05-07 05:16 14.49814 121.00059 65 ft 0 kts 61°
2026-05-07 05:17 14.49816 121.00062 65 ft 3 kts 61°
2026-05-07 05:17 14.49931 121.00269 62 ft 69 kts 60°
2026-05-07 05:18 14.50277 121.00893 63 ft 128 kts 60°
2026-05-07 05:18 14.50803 121.01831 95 ft 171 kts 62°
2026-05-07 05:18 14.51409 121.02881 756 ft 168 kts 63°
2026-05-07 05:18 14.51994 121.03930 1421 ft 169 kts 61°
2026-05-07 05:19 14.52581 121.05001 1953 ft 177 kts 61°
2026-05-07 05:19 14.53213 121.06156 2175 ft 198 kts 61°
2026-05-07 05:19 14.53931 121.07461 2380 ft 218 kts 61°
2026-05-07 05:19 14.54717 121.08887 2632 ft 241 kts 61°
2026-05-07 05:20 14.55742 121.10323 3015 ft 260 kts 41°
2026-05-07 05:20 14.57361 121.11161 3697 ft 269 kts 13°
2026-05-07 05:20 14.59239 121.11063 4460 ft 277 kts 342°
2026-05-07 05:20 14.60827 121.09952 5213 ft 285 kts 310°
2026-05-07 05:21 14.61628 121.08113 5940 ft 291 kts 277°
2026-05-07 05:21 14.60400 121.04173 7377 ft 296 kts 240°
2026-05-07 05:21 14.59411 121.02298 8105 ft 298 kts 241°
2026-05-07 05:22 14.58438 121.00398 8826 ft 300 kts 242°
2026-05-07 05:22 14.57477 120.98479 9536 ft 303 kts 242°
2026-05-07 05:22 14.56516 120.96535 10172 ft 306 kts 242°
2026-05-07 05:22 14.55519 120.94505 10342 ft 328 kts 243°
2026-05-07 05:23 14.54456 120.92327 10467 ft 349 kts 243°
2026-05-07 05:23 14.53347 120.90055 10876 ft 358 kts 243°
2026-05-07 05:23 14.52218 120.87748 11429 ft 362 kts 243°
2026-05-07 05:23 14.51075 120.85420 12002 ft 366 kts 243°
2026-05-07 05:24 14.49919 120.83066 12557 ft 369 kts 243°
2026-05-07 05:24 14.48749 120.80691 13105 ft 372 kts 242°
2026-05-07 05:24 14.47570 120.78298 13652 ft 376 kts 242°
2026-05-07 05:24 14.46378 120.75884 14130 ft 379 kts 242°
2026-05-07 05:25 14.45176 120.73452 14613 ft 382 kts 242°
2026-05-07 05:25 14.43962 120.70993 15065 ft 386 kts 242°
2026-05-07 05:25 14.42758 120.68546 15519 ft 390 kts 242°
2026-05-07 05:25 14.41512 120.66015 15988 ft 392 kts 242°
2026-05-07 05:26 14.40283 120.63523 16385 ft 397 kts 242°
2026-05-07 05:26 14.39033 120.60985 16869 ft 399 kts 243°
2026-05-07 05:26 14.37772 120.58431 17385 ft 400 kts 243°
2026-05-07 05:26 14.36500 120.55865 17799 ft 403 kts 242°
2026-05-07 05:27 14.35218 120.53276 18209 ft 407 kts 242°
2026-05-07 05:27 14.33925 120.50664 18582 ft 410 kts 242°
2026-05-07 05:27 14.32626 120.48038 18993 ft 411 kts 243°
2026-05-07 05:27 14.31326 120.45405 19346 ft 414 kts 243°
2026-05-07 05:28 14.30016 120.42754 19693 ft 417 kts 242°
2026-05-07 05:28 14.28697 120.40085 20085 ft 418 kts 242°
2026-05-07 05:28 14.27375 120.37414 20537 ft 418 kts 242°
2026-05-07 05:28 14.26051 120.34740 20945 ft 419 kts 242°
2026-05-07 05:29 14.24722 120.32056 21325 ft 421 kts 242°
2026-05-07 05:29 14.23387 120.29360 21682 ft 424 kts 242°
2026-05-07 05:29 14.22043 120.26651 22034 ft 426 kts 242°
2026-05-07 05:29 14.20689 120.23924 22341 ft 429 kts 242°
2026-05-07 05:30 14.19324 120.21173 22656 ft 432 kts 242°
2026-05-07 05:30 14.17957 120.18416 22992 ft 434 kts 243°
2026-05-07 05:30 14.16668 120.15631 23336 ft 436 kts 245°
2026-05-07 05:30 14.15472 120.12747 23644 ft 438 kts 248°
2026-05-07 05:31 14.14349 120.09818 23888 ft 441 kts 249°
2026-05-07 05:31 14.13253 120.06862 24180 ft 443 kts 249°
2026-05-07 05:31 14.12143 120.03889 24470 ft 444 kts 249°
2026-05-07 05:31 14.11013 120.00926 24753 ft 445 kts 248°
2026-05-07 05:32 14.09856 119.97964 25026 ft 448 kts 248°
2026-05-07 05:32 14.08675 119.94989 25314 ft 449 kts 248°
2026-05-07 05:32 14.07487 119.92021 25637 ft 449 kts 248°
2026-05-07 05:32 14.06294 119.89039 25916 ft 450 kts 248°
2026-05-07 05:33 14.05102 119.86055 26178 ft 452 kts 248°
2026-05-07 05:33 14.03908 119.83059 26464 ft 453 kts 248°
2026-05-07 05:33 14.02714 119.80052 26783 ft 453 kts 249°
2026-05-07 05:33 14.01519 119.77044 27063 ft 454 kts 249°
2026-05-07 05:34 14.00325 119.74033 27350 ft 455 kts 249°
2026-05-07 05:34 13.99127 119.71012 27630 ft 456 kts 249°
2026-05-07 05:34 13.97921 119.67983 27896 ft 458 kts 248°
2026-05-07 05:34 13.96709 119.64939 28122 ft 460 kts 249°
2026-05-07 05:35 13.95492 119.61883 28365 ft 461 kts 249°
2026-05-07 05:35 13.94274 119.58825 28625 ft 462 kts 249°
2026-05-07 05:35 13.93051 119.55756 28861 ft 464 kts 249°
2026-05-07 05:35 13.91822 119.52678 29108 ft 464 kts 249°
2026-05-07 05:36 13.90593 119.49600 29370 ft 465 kts 249°
2026-05-07 05:36 13.89366 119.46518 29598 ft 466 kts 250°
2026-05-07 05:36 13.88151 119.43464 29832 ft 467 kts 249°
2026-05-07 05:36 13.86915 119.40356 30036 ft 469 kts 250°
2026-05-07 05:37 13.85679 119.37257 30234 ft 469 kts 249°
2026-05-07 05:37 13.84434 119.34154 30517 ft 468 kts 249°
2026-05-07 05:37 13.83193 119.31064 30804 ft 466 kts 249°
2026-05-07 05:37 13.81956 119.27981 31078 ft 466 kts 249°
2026-05-07 05:38 13.80723 119.24899 31343 ft 465 kts 249°
2026-05-07 05:38 13.79499 119.21831 31632 ft 463 kts 249°
2026-05-07 05:38 13.78276 119.18765 31904 ft 462 kts 250°
2026-05-07 05:38 13.77058 119.15708 32164 ft 462 kts 249°
2026-05-07 05:39 13.75838 119.12656 32445 ft 461 kts 249°
2026-05-07 05:39 13.74615 119.09612 32723 ft 459 kts 249°
2026-05-07 05:39 13.73397 119.06582 33011 ft 458 kts 249°
2026-05-07 05:39 13.72180 119.03553 33241 ft 458 kts 249°
2026-05-07 05:40 13.70966 119.00529 33542 ft 456 kts 249°
2026-05-07 05:40 13.69757 118.97517 33807 ft 456 kts 248°
2026-05-07 05:40 13.68564 118.94553 33859 ft 453 kts 249°
2026-05-07 05:41 13.66160 118.88584 33860 ft 450 kts 249°
2026-05-07 05:41 13.63771 118.82631 33860 ft 451 kts 249°
2026-05-07 05:42 13.61376 118.76670 33860 ft 450 kts 249°
2026-05-07 05:42 13.58973 118.70716 33861 ft 451 kts 249°
2026-05-07 05:43 13.56573 118.64758 33873 ft 451 kts 249°
2026-05-07 05:43 13.54172 118.58796 33863 ft 451 kts 249°
2026-05-07 05:44 13.51764 118.52839 33864 ft 451 kts 249°
2026-05-07 05:44 13.49364 118.46914 33863 ft 452 kts 249°
2026-05-07 05:45 13.46953 118.40952 33864 ft 452 kts 249°
2026-05-07 05:45 13.44543 118.34991 33860 ft 452 kts 249°
2026-05-07 05:46 13.42124 118.29030 33859 ft 452 kts 249°
2026-05-07 05:46 13.39697 118.23063 33861 ft 452 kts 249°
2026-05-07 05:47 13.37280 118.17099 33862 ft 453 kts 249°
2026-05-07 05:47 13.34878 118.11167 33864 ft 453 kts 249°
2026-05-07 05:48 13.32457 118.05200 33867 ft 453 kts 249°
2026-05-07 05:48 13.30035 117.99238 33869 ft 453 kts 249°
2026-05-07 05:49 13.27603 117.93274 33874 ft 453 kts 249°
2026-05-07 05:49 13.25167 117.87312 33871 ft 453 kts 249°
2026-05-07 05:50 13.22737 117.81353 33877 ft 452 kts 249°
2026-05-07 05:50 13.20317 117.75398 33878 ft 452 kts 249°
2026-05-07 05:51 13.17894 117.69450 33878 ft 452 kts 249°
2026-05-07 05:51 13.15457 117.63507 33875 ft 452 kts 249°
2026-05-07 05:52 13.13024 117.57568 33871 ft 452 kts 249°
2026-05-07 05:52 13.10598 117.51623 33872 ft 452 kts 249°
2026-05-07 05:53 13.08163 117.45682 33875 ft 452 kts 249°
2026-05-07 05:53 13.05741 117.39777 33872 ft 452 kts 249°
2026-05-07 05:54 13.03306 117.33836 33875 ft 452 kts 249°
2026-05-07 05:54 13.00871 117.27892 33869 ft 452 kts 249°
2026-05-07 05:55 12.98428 117.21958 33878 ft 451 kts 249°
2026-05-07 05:55 12.95988 117.16027 33881 ft 451 kts 249°
2026-05-07 05:56 12.93550 117.10105 33881 ft 450 kts 249°
2026-05-07 05:56 12.91117 117.04193 33880 ft 450 kts 249°
2026-05-07 05:57 12.88686 116.98282 33879 ft 450 kts 249°
2026-05-07 05:57 12.86251 116.92376 33879 ft 450 kts 249°
2026-05-07 05:58 12.83805 116.86465 33878 ft 450 kts 249°
2026-05-07 05:58 12.81365 116.80552 33874 ft 450 kts 249°
2026-05-07 05:59 12.78931 116.74640 33874 ft 451 kts 249°
2026-05-07 05:59 12.76501 116.68761 33874 ft 451 kts 249°
2026-05-07 06:00 12.74052 116.62849 33871 ft 451 kts 249°
2026-05-07 06:00 12.71605 116.56939 33877 ft 450 kts 249°
2026-05-07 06:01 12.69155 116.51032 33874 ft 451 kts 249°
2026-05-07 06:01 12.66706 116.45121 33875 ft 451 kts 249°
2026-05-07 06:02 12.64251 116.39210 33872 ft 451 kts 249°
2026-05-07 06:02 12.61788 116.33301 33873 ft 451 kts 249°
2026-05-07 06:03 12.59330 116.27385 33873 ft 451 kts 249°
2026-05-07 06:03 12.56877 116.21469 33865 ft 452 kts 249°
2026-05-07 06:04 12.54411 116.15543 33865 ft 452 kts 249°
2026-05-07 06:04 12.51937 116.09625 33865 ft 453 kts 249°
2026-05-07 06:05 12.49467 116.03699 33867 ft 453 kts 249°
2026-05-07 06:05 12.47013 115.97809 33874 ft 452 kts 249°
2026-05-07 06:06 12.44545 115.91892 33871 ft 452 kts 249°
2026-05-07 06:06 12.42062 115.85973 33870 ft 452 kts 249°
2026-05-07 06:07 12.40002 115.81056 33867 ft 452 kts 249°
2026-05-07 06:07 12.37122 115.74138 33867 ft 452 kts 249°
2026-05-07 06:08 12.35065 115.69217 33867 ft 452 kts 249°
2026-05-07 06:08 12.32586 115.63304 33863 ft 452 kts 249°
2026-05-07 06:09 12.29699 115.56427 33861 ft 453 kts 249°
2026-05-07 06:09 12.27612 115.51462 33861 ft 453 kts 249°
2026-05-07 06:10 12.25150 115.45578 33862 ft 453 kts 249°
2026-05-07 06:10 12.22660 115.39656 33861 ft 453 kts 249°
2026-05-07 06:11 12.20173 115.33739 33866 ft 453 kts 249°
2026-05-07 06:11 12.17687 115.27823 33862 ft 453 kts 249°
2026-05-07 06:12 12.15191 115.21916 33865 ft 453 kts 249°
2026-05-07 06:12 12.12697 115.16008 33863 ft 453 kts 249°
2026-05-07 06:13 12.10211 115.10094 33860 ft 453 kts 249°
2026-05-07 06:13 12.07725 115.04177 33860 ft 453 kts 249°
2026-05-07 06:14 12.05223 114.98261 33857 ft 453 kts 249°
2026-05-07 06:14 12.02737 114.92396 33858 ft 453 kts 249°
2026-05-07 06:15 12.00240 114.86482 33857 ft 453 kts 249°
2026-05-07 06:15 11.97742 114.80574 33858 ft 453 kts 249°
2026-05-07 06:16 11.95249 114.74665 33858 ft 453 kts 249°
2026-05-07 06:16 11.92749 114.68768 33864 ft 452 kts 249°
2026-05-07 06:17 11.90250 114.62874 33864 ft 452 kts 249°
2026-05-07 06:17 11.87751 114.56981 33863 ft 452 kts 249°
2026-05-07 06:18 11.85250 114.51094 33860 ft 451 kts 249°
2026-05-07 06:18 11.82755 114.45215 33859 ft 451 kts 249°
2026-05-07 06:19 11.80278 114.39377 33857 ft 451 kts 249°
2026-05-07 06:19 11.77778 114.33499 33845 ft 452 kts 249°
2026-05-07 06:20 11.75269 114.27617 33848 ft 452 kts 248°
2026-05-07 06:20 11.72762 114.21742 33847 ft 452 kts 249°
2026-05-07 06:21 11.70257 114.15858 33844 ft 452 kts 249°
2026-05-07 06:21 11.67755 114.09976 33844 ft 452 kts 249°
2026-05-07 06:22 11.65254 114.04086 33840 ft 452 kts 248°
2026-05-07 06:22 11.63298 113.98037 33840 ft 448 kts 263°
2026-05-07 06:22 11.62913 113.94883 33840 ft 448 kts 265°
2026-05-07 06:23 11.62205 113.88567 33841 ft 448 kts 265°
2026-05-07 06:23 11.61490 113.82281 33845 ft 448 kts 265°
2026-05-07 06:24 11.60770 113.75972 33845 ft 448 kts 265°
2026-05-07 06:24 11.60051 113.69658 33848 ft 448 kts 265°
2026-05-07 06:25 11.59330 113.63346 33846 ft 448 kts 265°
2026-05-07 06:25 11.58604 113.57034 33848 ft 448 kts 265°
2026-05-07 06:26 11.57877 113.50724 33846 ft 448 kts 265°
2026-05-07 06:26 11.57149 113.44419 33844 ft 448 kts 265°
2026-05-07 06:27 11.56427 113.38115 33843 ft 448 kts 265°
2026-05-07 06:27 11.55707 113.31812 33848 ft 448 kts 265°
2026-05-07 06:28 11.54981 113.25508 33846 ft 448 kts 265°
2026-05-07 06:28 11.54245 113.19205 33847 ft 448 kts 265°
2026-05-07 06:29 11.53511 113.12901 33848 ft 448 kts 265°
2026-05-07 06:29 11.52777 113.06600 33845 ft 447 kts 265°
2026-05-07 06:30 11.52038 113.00298 33847 ft 447 kts 265°
2026-05-07 06:30 11.51301 112.93997 33846 ft 447 kts 265°
2026-05-07 06:31 11.50573 112.87743 33843 ft 447 kts 265°
2026-05-07 06:31 11.49832 112.81450 33845 ft 447 kts 265°
2026-05-07 06:32 11.49090 112.75158 33840 ft 447 kts 265°
2026-05-07 06:32 11.48357 112.68871 33837 ft 447 kts 265°
2026-05-07 06:33 11.47614 112.62582 33834 ft 447 kts 265°
2026-05-07 06:33 11.46872 112.56286 33826 ft 448 kts 265°
2026-05-07 06:34 11.46172 112.49974 33826 ft 448 kts 266°
2026-05-07 06:34 11.45497 112.43667 33819 ft 449 kts 266°
2026-05-07 06:35 11.44806 112.37322 33824 ft 450 kts 265°
2026-05-07 06:35 11.44103 112.30984 33827 ft 450 kts 265°
2026-05-07 06:36 11.43404 112.24678 33827 ft 450 kts 265°
2026-05-07 06:36 11.42704 112.18337 33831 ft 450 kts 265°
2026-05-07 06:37 11.41999 112.11989 33833 ft 451 kts 265°
2026-05-07 06:37 11.41288 112.05638 33833 ft 451 kts 265°
2026-05-07 06:38 11.40574 111.99291 33836 ft 451 kts 265°
2026-05-07 06:38 11.39885 111.93122 33836 ft 451 kts 265°